Terminal Aerodrome Forecast
Issued by NWS

Home | Current Version | Previous Version | Text Only | Print | Product List | Glossary On
Versions: 1 2 3 4 5 6 7 8 9 10 11 12 13 14 15 16
000
FTAK31 PAFA 302320
TAFASC
TAF
PASC 302320Z 3100/3124 19008KT P6SM SCT006 OVC120
     FM310800 18008KT P6SM OVC007
     FM311100 28011KT 1/2SM FG OVC003=

USA.gov is the U.S. government's official web portal to all federal, state and local government web resources and services.